Terminal Aerodrome Forecast
Issued by NWS

Home | Current Version | Previous Version | Text Only | Print | Product List | Glossary On
Versions: 1 2 3 4 5 6 7 8 9 10 11 12 13 14 15 16 17
000
FTAK31 PAJN 270500
TAFAPG
TAF
PAPG 270535Z 2706/2806 20006KT P6SM SKC
     FM271500 17008G18KT P6SM SKC
     FM272100 03008KT P6SM SKC
      AMD LTD TO CLD VIS AND WIND TIL 271500=

USA.gov is the U.S. government's official web portal to all federal, state and local government web resources and services.